TJS-9

Last updated on Mon Jun 22 2026 00:03:07 GMT+0000 (Coordinated Universal Time)

1 50574U 21135A 26172.51642083 -.00000300 00000+0 00000+0 0 9992 2 50574 0.0352 223.6136 0003656 188.5535 180.6699 1.00273178 16477
UTC large
Height (km)
Speed (km/s)
/
Latitude / Longitude
Inclination (degrees)
Orbital Period (minutes)
Azimuth
Elevation
Range (km)
Doppler Factor

Next 0 passes for location: London (51.5072 / 0.1276)

No passes found over London.
TJS-9